Torna al catalogo

THORAD AGENA D DEB

AttivoLEO
NORAD 42546·DEBRIS·🇺🇸 United States

Lanciato Apr 8, 1970 da Vandenberg Space Force Base

Loading…

Prossimi Passaggi (prossime 24 ore)

TLE

In scadenzaSource: Space-Track

Epoca: Sep 11, 2026, 07:55 UTC

1 42546U 70025TC  26254.33008014  .00000550  00000-0  73190-3 0  9996
2 42546 100.0976 114.8010 0054888  80.0114 280.7216 13.64962886636350

Traccia THORAD AGENA D DEB in tempo reale con AllMySat

Download on the App Store